| time (UTC) | temp C | wind direction | speed KPH | gust KPH | rain 1hr cm | rain 24hr cm | rain mn cm | humidity % | barometer mb |
| 20260504081518 | 11 | 207 | 0.0 | 0.0 | 0.00 | 0.00 | 0.00 | 90 | 1018.3 |
| 20260504050016 | 13 | 306 | 0.0 | 3.2 | 0.00 | 0.00 | 0.00 | 84 | 1019.2 |
| 20260504044524 | 13 | 233 | 0.0 | 1.6 | 0.00 | 0.00 | 0.00 | 85 | 1019.3 |
| 20260504043033 | 13 | 133 | 0.0 | 1.6 | 0.00 | 0.00 | 0.00 | 83 | 1019.4 |
| 20260504041535 | 13 | 231 | 0.0 | 0.0 | 0.00 | 0.00 | 0.00 | 82 | 1019.5 |
| 20260504040014 | 13 | 270 | 3.2 | 4.8 | 0.00 | 0.00 | 0.00 | 81 | 1019.5 |
| 20260504034519 | 13 | 283 | 0.0 | 0.0 | 0.00 | 0.00 | 0.00 | 81 | 1019.4 |
| 20260504033024 | 14 | 283 | 0.0 | 0.0 | 0.00 | 0.00 | 0.00 | 83 | 1019.5 |
| 20260504031526 | 15 | 283 | 0.0 | 0.0 | 0.00 | 0.00 | 0.00 | 79 | 1019.5 |
| 20260504030032 | 15 | 283 | 0.0 | 0.0 | 0.00 | 0.00 | 0.00 | 79 | 1019.4 |
| 20260504024517 | 15 | 283 | 0.0 | 0.0 | 0.00 | 0.00 | 0.00 | 77 | 1019.3 |
| 20260504023026 | 15 | 283 | 0.0 | 4.8 | 0.00 | 0.00 | 0.00 | 74 | 1019.1 |
| 20260504021525 | 16 | 210 | 0.0 | 4.8 | 0.00 | 0.00 | 0.00 | 74 | 1019.0 |
| 20260504020028 | 16 | 3 | 0.0 | 0.0 | 0.00 | 0.00 | 0.00 | 75 | 1018.9 |
| 20260504014536 | 17 | 3 | 0.0 | 0.0 | 0.00 | 0.00 | 0.00 | 73 | 1018.7 |
| 20260504013021 | 17 | 3 | 0.0 | 0.0 | 0.00 | 0.00 | 0.00 | 65 | 1018.6 |
| 20260504011524 | 18 | 3 | 0.0 | 0.0 | 0.00 | 0.00 | 0.00 | 63 | 1018.5 |
| 20260504010026 | 19 | 3 | 0.0 | 0.0 | 0.00 | 0.00 | 0.00 | 57 | 1018.5 |
| 20260504004526 | 20 | 3 | 0.0 | 0.0 | 0.00 | 0.00 | 0.00 | 51 | 1018.3 |
| 20260504003034 | 22 | 3 | 0.0 | 0.0 | 0.00 | 0.00 | 0.00 | 46 | 1018.4 |
| 20260504001520 | 23 | 4 | 0.0 | 0.0 | 0.00 | 0.00 | 0.00 | 42 | 1018.1 |
| 20260504000023 | 23 | 6 | 0.0 | 0.0 | 0.00 | 0.00 | 0.00 | 40 | 1018.1 |
| 20260503234528 | 23 | 319 | 1.6 | 9.7 | 0.00 | 0.00 | 0.00 | 40 | 1018.2 |
| 20260503233030 | 24 | 299 | 3.2 | 6.4 | 0.00 | 0.00 | 0.00 | 35 | 1018.2 |
| 20260503231520 | 24 | 269 | 1.6 | 4.8 | 0.00 | 0.00 | 0.00 | 34 | 1018.3 |
| 20260503230024 | 24 | 281 | 4.8 | 6.4 | 0.00 | 0.00 | 0.00 | 33 | 1018.3 |
| 20260503224506 | 24 | 259 | 3.2 | 9.7 | 0.00 | 0.00 | 0.00 | 34 | 1018.4 |
| 20260503223028 | 23 | 293 | 8.0 | 12.9 | 0.00 | 0.00 | 0.00 | 35 | 1018.5 |
| 20260503221515 | 23 | 297 | 4.8 | 14.5 | 0.00 | 0.00 | 0.00 | 35 | 1018.6 |
| 20260503220025 | 24 | 298 | 3.2 | 11.3 | 0.00 | 0.00 | 0.00 | 34 | 1018.7 |
| 20260503214504 | 24 | 305 | 1.6 | 14.5 | 0.00 | 0.00 | 0.00 | 35 | 1018.9 |
| 20260503213006 | 23 | 325 | 8.0 | 12.9 | 0.00 | 0.00 | 0.00 | 36 | 1019.1 |
| 20260503211514 | 23 | 335 | 4.8 | 9.7 | 0.00 | 0.00 | 0.00 | 37 | 1019.2 |
| 20260503210017 | 23 | 50 | 4.8 | 12.9 | 0.00 | 0.00 | 0.00 | 37 | 1019.4 |
| 20260503204522 | 24 | 311 | 6.4 | 12.9 | 0.00 | 0.00 | 0.00 | 36 | 1019.6 |
| 20260503203004 | 24 | 284 | 4.8 | 16.1 | 0.00 | 0.00 | 0.00 | 36 | 1019.7 |
| 20260503201511 | 23 | 328 | 8.0 | 17.7 | 0.00 | 0.00 | 0.00 | 38 | 1019.9 |
| 20260503200028 | 23 | 331 | 4.8 | 16.1 | 0.00 | 0.00 | 0.00 | 37 | 1020.0 |
| 20260503194518 | 23 | 284 | 8.0 | 14.5 | 0.00 | 0.00 | 0.00 | 36 | 1020.4 |
| 20260503193026 | 23 | 354 | 6.4 | 16.1 | 0.00 | 0.00 | 0.00 | 38 | 1020.8 |
| 20260503191511 | 23 | 32 | 8.0 | 14.5 | 0.00 | 0.00 | 0.00 | 36 | 1021.0 |
| 20260503190012 | 23 | 322 | 6.4 | 17.7 | 0.00 | 0.00 | 0.00 | 36 | 1021.4 |
| 20260503184518 | 23 | 342 | 6.4 | 12.9 | 0.00 | 0.00 | 0.00 | 35 | 1021.6 |
| 20260503183021 | 23 | 258 | 4.8 | 17.7 | 0.00 | 0.00 | 0.00 | 35 | 1021.7 |
| 20260503181526 | 23 | 22 | 3.2 | 17.7 | 0.00 | 0.00 | 0.00 | 35 | 1021.8 |
| 20260503180010 | 23 | 293 | 8.0 | 14.5 | 0.00 | 0.00 | 0.00 | 35 | 1022.1 |
| 20260503174513 | 22 | 314 | 6.4 | 12.9 | 0.00 | 0.00 | 0.00 | 36 | 1022.2 |
| 20260503173019 | 22 | 303 | 11.3 | 19.3 | 0.00 | 0.00 | 0.00 | 37 | 1022.5 |
| 20260503171526 | 22 | 291 | 1.6 | 12.9 | 0.00 | 0.00 | 0.00 | 39 | 1022.6 |